Location: Deurze
(52.9838°N, 6.6090°E)
Time: 18:35:19
(UTC+00:00)

Okean O Rocket - Pass Details

Date: 11 March 2026
Orbit: 612 x 635 km, 98.0° (Epoch: 20 April)

Event Time Altitude Azimuth Distance (km) Brightness Sun altitude
Exits shadow 19:16:26 29° 85° (E) 1,181 2.5 -16.6°
Maximum altitude 19:17:15 31° 63° (ENE) 1,126 2.5 -16.7°
Drops below altitude 10° 19:21:09 10° 2° (N) 2,036 4.4 -17.3°
Sets 19:23:32 0° 352° (N) 2,948 5.4 -17.6°
